,,PressureMeas_1m,,PRMeasQMR101_1,,RHStat155_1m_1,,SRMeasQMS101R_1m,,TAStat155_1m_1,,GenWind_1,,GenWind_1,
2017-06-12, 00:00:06,VALID,918.382,VALID,0.0,VALID,94.228,VALID,-0.012,VALID,20.576,VALID,214.0,VALID,0.189,
2017-06-12, 00:01:06,VALID,918.364,VALID,0.0,VALID,94.033,VALID,-0.026,VALID,20.572,VALID,215.0,VALID,0.151,
2017-06-12, 00:02:06,VALID,918.352,VALID,0.0,VALID,93.742,VALID,-0.027,VALID,20.612,VALID,215.0,VALID,0.002,
2017-06-12, 00:03:06,VALID,918.328,VALID,0.0,VALID,93.756,VALID,-0.024,VALID,20.64,VALID,215.0,VALID,0.0,
2017-06-12, 00:04:06,VALID,918.323,VALID,0.0,VALID,93.631,VALID,-0.02,VALID,20.672,VALID,215.0,VALID,0.0,
2017-06-12, 00:05:06,VALID,918.324,VALID,0.0,VALID,93.387,VALID,-0.037,VALID,20.704,VALID,215.0,VALID,0.0,
2017-06-12, 00:06:06,VALID,918.299,VALID,0.0,VALID,93.323,VALID,-0.024,VALID,20.727,VALID,215.0,VALID,0.104,
2017-06-12, 00:07:06,VALID,918.313,VALID,0.0,VALID,93.785,VALID,-0.02,VALID,20.746,VALID,216.0,VALID,0.216,
2017-06-12, 00:08:06,VALID,918.316,VALID,0.0,VALID,93.936,VALID,-0.008,VALID,20.751,VALID,214.0,VALID,0.21,
2017-06-12, 00:09:06,VALID,918.308,VALID,0.0,VALID,93.922,VALID,-0.003,VALID,20.746,VALID,195.0,VALID,0.061,
2017-06-12, 00:10:06,VALID,918.315,VALID,0.0,VALID,93.862,VALID,-0.022,VALID,20.738,VALID,209.0,VALID,0.078,
2017-06-12, 00:11:06,VALID,918.316,VALID,0.0,VALID,93.768,VALID,-0.022,VALID,20.714,VALID,210.0,VALID,0.077,
2017-06-12, 00:12:06,VALID,918.309,VALID,0.0,VALID,93.316,VALID,-0.016,VALID,20.644,VALID,199.0,VALID,0.213,
2017-06-12, 00:13:06,VALID,918.298,VALID,0.0,VALID,93.276,VALID,-0.008,VALID,20.531,VALID,185.0,VALID,0.089,
2017-06-12, 00:14:06,VALID,918.306,VALID,0.0,VALID,93.875,VALID,-0.013,VALID,20.478,VALID,184.0,VALID,0.101,
2017-06-12, 00:15:06,VALID,918.294,VALID,0.0,VALID,94.335,VALID,-0.018,VALID,20.443,VALID,174.0,VALID,0.107,
2017-06-12, 00:16:06,VALID,918.279,VALID,0.0,VALID,94.818,VALID,-0.021,VALID,20.42,VALID,173.0,VALID,0.041,
2017-06-12, 00:17:06,VALID,918.276,VALID,0.0,VALID,95.161,VALID,-0.012,VALID,20.412,VALID,173.0,VALID,0.0,
2017-06-12, 00:18:06,VALID,918.257,VALID,0.0,VALID,95.348,VALID,-0.021,VALID,20.401,VALID,173.0,VALID,0.0,
2017-06-12, 00:19:06,VALID,918.239,VALID,0.0,VALID,95.375,VALID,-0.015,VALID,20.384,VALID,173.0,VALID,0.0,
2017-06-12, 00:20:06,VALID,918.231,VALID,0.0,VALID,95.397,VALID,-0.023,VALID,20.369,VALID,173.0,VALID,0.0,
2017-06-12, 00:21:06,VALID,918.225,VALID,0.0,VALID,95.465,VALID,-0.016,VALID,20.345,VALID,161.0,VALID,0.159,
2017-06-12, 00:22:06,VALID,918.212,VALID,0.0,VALID,95.719,VALID,-0.013,VALID,20.321,VALID,151.0,VALID,0.681,
2017-06-12, 00:23:06,VALID,918.199,VALID,0.0,VALID,96.507,VALID,0.013,VALID,20.304,VALID,151.0,VALID,0.476,
2017-06-12, 00:24:06,VALID,918.196,VALID,0.0,VALID,96.557,VALID,0.014,VALID,20.225,VALID,135.0,VALID,0.396,
2017-06-12, 00:25:06,VALID,918.19,VALID,0.0,VALID,96.719,VALID,-0.014,VALID,20.17,VALID,132.0,VALID,0.41,
2017-06-12, 00:26:06,VALID,918.176,VALID,0.0,VALID,96.889,VALID,0.001,VALID,20.135,VALID,124.0,VALID,0.511,
2017-06-12, 00:27:06,VALID,918.154,VALID,0.0,VALID,97.037,VALID,-0.004,VALID,20.102,VALID,125.0,VALID,0.312,
2017-06-12, 00:28:06,VALID,918.129,VALID,0.0,VALID,97.18,VALID,-0.003,VALID,20.079,VALID,125.0,VALID,0.123,
2017-06-12, 00:29:06,VALID,918.114,VALID,0.0,VALID,97.148,VALID,0.012,VALID,20.033,VALID,125.0,VALID,0.0,
2017-06-12, 00:30:06,VALID,918.101,VALID,0.0,VALID,97.157,VALID,-0.008,VALID,19.996,VALID,125.0,VALID,0.0,
2017-06-12, 00:31:06,VALID,918.082,VALID,0.0,VALID,97.17,VALID,-0.017,VALID,19.966,VALID,125.0,VALID,0.0,
2017-06-12, 00:32:06,VALID,918.089,VALID,0.0,VALID,97.419,VALID,-0.021,VALID,19.998,VALID,125.0,VALID,0.013,
2017-06-12, 00:33:06,VALID,918.085,VALID,0.0,VALID,97.51,VALID,-0.015,VALID,19.988,VALID,85.0,VALID,0.014,
2017-06-12, 00:34:06,VALID,918.073,VALID,0.0,VALID,97.448,VALID,-0.007,VALID,19.944,VALID,23.0,VALID,0.0,
2017-06-12, 00:35:06,VALID,918.068,VALID,0.0,VALID,97.651,VALID,-0.003,VALID,19.977,VALID,23.0,VALID,0.0,
2017-06-12, 00:36:06,VALID,918.056,VALID,0.0,VALID,97.79,VALID,-0.024,VALID,19.989,VALID,23.0,VALID,0.0,
2017-06-12, 00:37:06,VALID,918.056,VALID,0.0,VALID,97.713,VALID,-0.033,VALID,19.95,VALID,23.0,VALID,0.0,
2017-06-12, 00:38:06,VALID,918.029,VALID,0.0,VALID,97.773,VALID,0.006,VALID,19.959,VALID,24.0,VALID,0.0,
2017-06-12, 00:39:06,VALID,918.037,VALID,0.0,VALID,97.882,VALID,0.014,VALID,19.976,VALID,24.0,VALID,0.0,
2017-06-12, 00:40:06,VALID,918.023,VALID,0.0,VALID,97.783,VALID,0.023,VALID,19.938,VALID,24.0,VALID,0.0,
2017-06-12, 00:41:06,VALID,918.03,VALID,0.0,VALID,97.752,VALID,0.023,VALID,19.903,VALID,24.0,VALID,0.0,
2017-06-12, 00:42:06,VALID,918.039,VALID,0.0,VALID,97.763,VALID,0.012,VALID,19.915,VALID,24.0,VALID,0.0,
2017-06-12, 00:43:06,VALID,918.044,VALID,0.0,VALID,97.832,VALID,0.019,VALID,19.936,VALID,24.0,VALID,0.0,
2017-06-12, 00:44:06,VALID,918.052,VALID,0.0,VALID,97.876,VALID,0.011,VALID,19.96,VALID,24.0,VALID,0.0,
2017-06-12, 00:45:06,VALID,918.048,VALID,0.0,VALID,97.889,VALID,0.029,VALID,19.976,VALID,24.0,VALID,0.0,
2017-06-12, 00:46:06,VALID,918.048,VALID,0.0,VALID,97.811,VALID,0.026,VALID,19.964,VALID,44.0,VALID,0.0,
2017-06-12, 00:47:06,VALID,918.046,VALID,0.0,VALID,97.819,VALID,0.029,VALID,19.995,VALID,126.0,VALID,0.0,
2017-06-12, 00:48:06,VALID,918.039,VALID,0.0,VALID,97.932,VALID,0.022,VALID,20.037,VALID,123.0,VALID,0.0,
2017-06-12, 00:49:06,VALID,918.027,VALID,0.0,VALID,97.747,VALID,0.036,VALID,19.985,VALID,116.0,VALID,0.652,
2017-06-12, 00:50:06,VALID,918.017,VALID,0.0,VALID,97.588,VALID,0.022,VALID,19.921,VALID,117.0,VALID,0.721,
2017-06-12, 00:51:06,VALID,918.013,VALID,0.0,VALID,97.449,VALID,0.037,VALID,19.88,VALID,109.0,VALID,0.688,
2017-06-12, 00:52:06,VALID,918.002,VALID,0.0,VALID,97.545,VALID,0.023,VALID,19.908,VALID,105.0,VALID,0.455,
2017-06-12, 00:53:06,VALID,917.995,VALID,0.0,VALID,97.556,VALID,0.003,VALID,19.927,VALID,110.0,VALID,0.479,
2017-06-12, 00:54:06,VALID,917.985,VALID,0.0,VALID,97.552,VALID,-0.018,VALID,19.946,VALID,111.0,VALID,0.45,
2017-06-12, 00:55:06,VALID,917.983,VALID,0.0,VALID,97.431,VALID,-0.017,VALID,19.93,VALID,108.0,VALID,0.339,
2017-06-12, 00:56:06,VALID,917.981,VALID,0.0,VALID,97.425,VALID,-0.009,VALID,19.954,VALID,106.0,VALID,0.621,
2017-06-12, 00:57:06,VALID,917.988,VALID,0.0,VALID,97.506,VALID,0.004,VALID,19.982,VALID,120.0,VALID,0.691,
2017-06-12, 00:58:06,VALID,917.982,VALID,0.0,VALID,97.56,VALID,-0.003,VALID,20.014,VALID,121.0,VALID,0.878,
2017-06-12, 00:59:06,VALID,917.973,VALID,0.0,VALID,97.268,VALID,-0.014,VALID,19.947,VALID,129.0,VALID,1.172,
2017-06-12, 01:00:06,VALID,917.98,VALID,0.0,VALID,97.223,VALID,-0.026,VALID,19.913,VALID,131.0,VALID,1.267,
2017-06-12, 01:01:07,VALID,917.973,VALID,0.0,VALID,97.23,VALID,-0.02,VALID,19.883,VALID,139.0,VALID,1.108,
2017-06-12, 01:02:07,VALID,917.987,VALID,0.0,VALID,97.526,VALID,-0.014,VALID,19.918,VALID,139.0,VALID,1.137,
2017-06-12, 01:03:07,VALID,917.968,VALID,0.0,VALID,97.723,VALID,-0.012,VALID,19.933,VALID,138.0,VALID,1.035,
2017-06-12, 01:04:07,VALID,917.962,VALID,0.0,VALID,97.803,VALID,0.001,VALID,19.929,VALID,131.0,VALID,1.039,
2017-06-12, 01:05:07,VALID,917.954,VALID,0.0,VALID,97.763,VALID,-0.008,VALID,19.886,VALID,132.0,VALID,0.983,
2017-06-12, 01:06:07,VALID,917.941,VALID,0.0,VALID,97.827,VALID,-0.01,VALID,19.895,VALID,138.0,VALID,0.941,
2017-06-12, 01:07:07,VALID,917.937,VALID,0.0,VALID,98.022,VALID,-0.009,VALID,19.953,VALID,135.0,VALID,0.847,
2017-06-12, 01:08:07,VALID,917.933,VALID,0.0,VALID,98.027,VALID,0.005,VALID,19.97,VALID,134.0,VALID,0.839,
2017-06-12, 01:09:07,VALID,917.927,VALID,0.0,VALID,97.992,VALID,-0.001,VALID,19.956,VALID,131.0,VALID,0.859,
2017-06-12, 01:10:07,VALID,917.92,VALID,0.0,VALID,97.986,VALID,0.004,VALID,19.936,VALID,126.0,VALID,0.811,
2017-06-12, 01:11:07,VALID,917.915,VALID,0.0,VALID,97.992,VALID,-0.009,VALID,19.924,VALID,126.0,VALID,0.843,
2017-06-12, 01:12:07,VALID,917.904,VALID,0.0,VALID,98.003,VALID,0.002,VALID,19.913,VALID,119.0,VALID,0.942,
2017-06-12, 01:13:07,VALID,917.908,VALID,0.0,VALID,98.014,VALID,0.016,VALID,19.9,VALID,115.0,VALID,0.943,
2017-06-12, 01:14:07,VALID,917.913,VALID,0.0,VALID,98.094,VALID,-0.004,VALID,19.927,VALID,109.0,VALID,0.889,
2017-06-12, 01:15:07,VALID,917.913,VALID,0.0,VALID,98.036,VALID,-0.001,VALID,19.879,VALID,105.0,VALID,0.882,
2017-06-12, 01:16:07,VALID,917.907,VALID,0.0,VALID,97.949,VALID,-0.004,VALID,19.821,VALID,103.0,VALID,1.106,
2017-06-12, 01:17:07,VALID,917.897,VALID,0.0,VALID,98.062,VALID,0.009,VALID,19.869,VALID,103.0,VALID,1.033,
2017-06-12, 01:18:07,VALID,917.892,VALID,0.0,VALID,98.093,VALID,0.017,VALID,19.864,VALID,99.0,VALID,0.923,
2017-06-12, 01:19:07,VALID,917.876,VALID,0.0,VALID,97.976,VALID,0.015,VALID,19.828,VALID,98.0,VALID,0.893,
2017-06-12, 01:20:07,VALID,917.877,VALID,0.0,VALID,98.001,VALID,0.02,VALID,19.836,VALID,94.0,VALID,0.592,
2017-06-12, 01:21:07,VALID,917.848,VALID,0.0,VALID,97.945,VALID,0.016,VALID,19.809,VALID,84.0,VALID,0.659,
2017-06-12, 01:22:07,VALID,917.829,VALID,0.0,VALID,98.095,VALID,0.003,VALID,19.897,VALID,97.0,VALID,0.779,
2017-06-12, 01:23:07,VALID,917.825,VALID,0.0,VALID,98.184,VALID,0.016,VALID,19.94,VALID,99.0,VALID,0.661,
2017-06-12, 01:24:07,VALID,917.816,VALID,0.0,VALID,98.035,VALID,0.001,VALID,19.891,VALID,90.0,VALID,0.47,
2017-06-12, 01:25:07,VALID,917.807,VALID,0.0,VALID,97.841,VALID,0.005,VALID,19.819,VALID,82.0,VALID,0.358,
2017-06-12, 01:26:07,VALID,917.818,VALID,0.0,VALID,97.903,VALID,0.019,VALID,19.845,VALID,81.0,VALID,0.359,
2017-06-12, 01:27:07,VALID,917.824,VALID,0.0,VALID,97.972,VALID,0.01,VALID,19.861,VALID,81.0,VALID,0.285,
2017-06-12, 01:28:07,VALID,917.819,VALID,0.0,VALID,97.937,VALID,0.01,VALID,19.853,VALID,86.0,VALID,0.342,
2017-06-12, 01:29:07,VALID,917.805,VALID,0.0,VALID,97.932,VALID,0.01,VALID,19.862,VALID,106.0,VALID,0.291,
2017-06-12, 01:30:07,VALID,917.797,VALID,0.0,VALID,97.94,VALID,0.002,VALID,19.866,VALID,140.0,VALID,0.231,
2017-06-12, 01:31:07,VALID,917.781,VALID,0.0,VALID,97.867,VALID,0.019,VALID,19.858,VALID,152.0,VALID,0.193,
2017-06-12, 01:32:07,VALID,917.762,VALID,0.0,VALID,97.846,VALID,0.014,VALID,19.852,VALID,153.0,VALID,0.003,
2017-06-12, 01:33:07,VALID,917.74,VALID,0.0,VALID,97.839,VALID,0.008,VALID,19.859,VALID,153.0,VALID,0.0,
2017-06-12, 01:34:07,VALID,917.719,VALID,0.0,VALID,97.88,VALID,0.003,VALID,19.887,VALID,153.0,VALID,0.0,
2017-06-12, 01:35:07,VALID,917.706,VALID,0.0,VALID,97.852,VALID,0.007,VALID,19.914,VALID,153.0,VALID,0.0,
2017-06-12, 01:36:07,VALID,917.7,VALID,0.0,VALID,97.778,VALID,0.006,VALID,19.922,VALID,153.0,VALID,0.0,
2017-06-12, 01:37:07,VALID,917.69,VALID,0.0,VALID,97.745,VALID,0.025,VALID,19.939,VALID,153.0,VALID,0.0,
2017-06-12, 01:38:07,VALID,917.695,VALID,0.0,VALID,97.723,VALID,0.005,VALID,19.953,VALID,153.0,VALID,0.0,
2017-06-12, 01:39:07,VALID,917.696,VALID,0.0,VALID,97.71,VALID,-0.014,VALID,19.962,VALID,153.0,VALID,0.0,
2017-06-12, 01:40:07,VALID,917.703,VALID,0.0,VALID,97.696,VALID,-0.01,VALID,19.969,VALID,153.0,VALID,0.0,
2017-06-12, 01:41:07,VALID,917.7,VALID,0.0,VALID,97.673,VALID,0.003,VALID,19.965,VALID,163.0,VALID,0.0,
2017-06-12, 01:42:07,VALID,917.688,VALID,0.0,VALID,97.593,VALID,0.013,VALID,19.946,VALID,167.0,VALID,0.0,
2017-06-12, 01:43:07,VALID,917.692,VALID,0.0,VALID,97.532,VALID,0.004,VALID,19.927,VALID,167.0,VALID,0.0,
2017-06-12, 01:44:07,VALID,917.685,VALID,0.0,VALID,97.514,VALID,0.017,VALID,19.925,VALID,167.0,VALID,0.0,
2017-06-12, 01:45:07,VALID,917.674,VALID,0.0,VALID,97.587,VALID,-0.0,VALID,19.943,VALID,167.0,VALID,0.0,
2017-06-12, 01:46:07,VALID,917.662,VALID,0.0,VALID,97.59,VALID,-0.005,VALID,19.941,VALID,167.0,VALID,0.0,
2017-06-12, 01:47:07,VALID,917.647,VALID,0.0,VALID,97.538,VALID,-0.002,VALID,19.927,VALID,166.0,VALID,0.0,
2017-06-12, 01:48:07,VALID,917.627,VALID,0.0,VALID,97.538,VALID,-0.001,VALID,19.923,VALID,140.0,VALID,0.0,
2017-06-12, 01:49:07,VALID,917.627,VALID,0.0,VALID,97.694,VALID,-0.003,VALID,19.94,VALID,116.0,VALID,0.0,
2017-06-12, 01:50:07,VALID,917.624,VALID,0.0,VALID,97.806,VALID,-0.003,VALID,19.947,VALID,115.0,VALID,0.0,
2017-06-12, 01:51:07,VALID,917.647,VALID,0.0,VALID,97.834,VALID,0.005,VALID,19.925,VALID,112.0,VALID,0.682,
2017-06-12, 01:52:07,VALID,917.654,VALID,0.0,VALID,97.863,VALID,-0.014,VALID,19.898,VALID,113.0,VALID,0.724,
2017-06-12, 01:53:07,VALID,917.674,VALID,0.0,VALID,97.938,VALID,0.023,VALID,19.893,VALID,120.0,VALID,0.757,
2017-06-12, 01:54:07,VALID,917.684,VALID,0.0,VALID,97.942,VALID,0.028,VALID,19.862,VALID,121.0,VALID,0.634,
2017-06-12, 01:55:07,VALID,917.683,VALID,0.0,VALID,97.934,VALID,0.017,VALID,19.834,VALID,122.0,VALID,0.55,
2017-06-12, 01:56:07,VALID,917.685,VALID,0.0,VALID,98.014,VALID,0.02,VALID,19.849,VALID,119.0,VALID,0.771,
2017-06-12, 01:57:07,VALID,917.681,VALID,0.0,VALID,98.058,VALID,0.035,VALID,19.846,VALID,117.0,VALID,0.842,
2017-06-12, 01:58:07,VALID,917.683,VALID,0.0,VALID,98.082,VALID,0.033,VALID,19.837,VALID,109.0,VALID,0.599,
2017-06-12, 01:59:07,VALID,917.683,VALID,0.0,VALID,98.032,VALID,0.033,VALID,19.799,VALID,98.0,VALID,0.682,
2017-06-12, 02:00:07,VALID,917.694,VALID,0.0,VALID,97.997,VALID,0.031,VALID,19.772,VALID,104.0,VALID,0.923,
2017-06-12, 02:01:07,VALID,917.688,VALID,0.0,VALID,98.017,VALID,0.021,VALID,19.762,VALID,98.0,VALID,0.688,
2017-06-12, 02:02:07,VALID,917.704,VALID,0.0,VALID,98.021,VALID,0.03,VALID,19.749,VALID,93.0,VALID,0.696,
2017-06-12, 02:03:07,VALID,917.708,VALID,0.0,VALID,98.07,VALID,0.037,VALID,19.757,VALID,100.0,VALID,0.736,
2017-06-12, 02:04:07,VALID,917.711,VALID,0.0,VALID,98.113,VALID,0.023,VALID,19.772,VALID,110.0,VALID,0.672,
2017-06-12, 02:05:07,VALID,917.709,VALID,0.0,VALID,98.128,VALID,0.027,VALID,19.775,VALID,114.0,VALID,0.689,
2017-06-12, 02:06:07,VALID,917.694,VALID,0.0,VALID,98.099,VALID,0.044,VALID,19.771,VALID,114.0,VALID,0.773,
2017-06-12, 02:07:07,VALID,917.681,VALID,0.0,VALID,98.095,VALID,0.032,VALID,19.763,VALID,118.0,VALID,0.823,
2017-06-12, 02:08:07,VALID,917.675,VALID,0.0,VALID,98.088,VALID,0.006,VALID,19.768,VALID,118.0,VALID,0.848,
2017-06-12, 02:09:07,VALID,917.661,VALID,0.0,VALID,98.071,VALID,0.005,VALID,19.767,VALID,132.0,VALID,0.77,
2017-06-12, 02:10:07,VALID,917.654,VALID,0.0,VALID,98.08,VALID,-0.018,VALID,19.776,VALID,129.0,VALID,0.651,
2017-06-12, 02:11:07,VALID,917.642,VALID,0.0,VALID,98.078,VALID,0.005,VALID,19.778,VALID,133.0,VALID,0.638,
2017-06-12, 02:12:07,VALID,917.633,VALID,0.0,VALID,98.059,VALID,-0.009,VALID,19.788,VALID,140.0,VALID,0.748,
2017-06-12, 02:13:07,VALID,917.629,VALID,0.0,VALID,98.057,VALID,-0.012,VALID,19.805,VALID,134.0,VALID,0.632,
2017-06-12, 02:14:07,VALID,917.634,VALID,0.0,VALID,97.999,VALID,0.004,VALID,19.809,VALID,135.0,VALID,0.579,
2017-06-12, 02:15:07,VALID,917.633,VALID,0.0,VALID,97.931,VALID,-0.003,VALID,19.8,VALID,131.0,VALID,0.301,
2017-06-12, 02:16:07,VALID,917.628,VALID,0.0,VALID,97.876,VALID,-0.0,VALID,19.802,VALID,130.0,VALID,0.078,
2017-06-12, 02:17:07,VALID,917.63,VALID,0.0,VALID,97.824,VALID,0.0,VALID,19.805,VALID,131.0,VALID,0.182,
2017-06-12, 02:18:07,VALID,917.638,VALID,0.0,VALID,97.786,VALID,-0.009,VALID,19.809,VALID,131.0,VALID,0.169,
2017-06-12, 02:19:07,VALID,917.645,VALID,0.0,VALID,97.762,VALID,-0.015,VALID,19.811,VALID,131.0,VALID,0.055,
2017-06-12, 02:20:07,VALID,917.657,VALID,0.0,VALID,97.724,VALID,-0.007,VALID,19.813,VALID,131.0,VALID,0.204,
2017-06-12, 02:21:07,VALID,917.648,VALID,0.0,VALID,97.738,VALID,0.005,VALID,19.822,VALID,131.0,VALID,0.225,
2017-06-12, 02:22:07,VALID,917.662,VALID,0.0,VALID,97.718,VALID,0.005,VALID,19.835,VALID,131.0,VALID,0.337,
2017-06-12, 02:23:07,VALID,917.671,VALID,0.0,VALID,97.747,VALID,0.011,VALID,19.852,VALID,131.0,VALID,0.314,
2017-06-12, 02:24:07,VALID,917.677,VALID,0.0,VALID,97.761,VALID,-0.005,VALID,19.865,VALID,132.0,VALID,0.264,
2017-06-12, 02:25:07,VALID,917.694,VALID,0.0,VALID,97.744,VALID,0.008,VALID,19.882,VALID,139.0,VALID,0.43,
2017-06-12, 02:26:07,VALID,917.7,VALID,0.0,VALID,97.779,VALID,0.003,VALID,19.913,VALID,150.0,VALID,0.521,
2017-06-12, 02:27:07,VALID,917.71,VALID,0.0,VALID,97.683,VALID,0.001,VALID,19.928,VALID,156.0,VALID,0.453,
2017-06-12, 02:28:07,VALID,917.723,VALID,0.0,VALID,97.566,VALID,-0.009,VALID,19.945,VALID,161.0,VALID,0.434,
2017-06-12, 02:29:07,VALID,917.72,VALID,0.0,VALID,97.443,VALID,0.017,VALID,19.958,VALID,155.0,VALID,0.283,
2017-06-12, 02:30:07,VALID,917.738,VALID,0.0,VALID,97.285,VALID,0.008,VALID,19.962,VALID,145.0,VALID,0.243,
2017-06-12, 02:31:07,VALID,917.739,VALID,0.0,VALID,97.249,VALID,0.017,VALID,19.969,VALID,140.0,VALID,0.09,
2017-06-12, 02:32:07,VALID,917.744,VALID,0.0,VALID,97.171,VALID,0.019,VALID,19.962,VALID,140.0,VALID,0.1,
2017-06-12, 02:33:07,VALID,917.752,VALID,0.0,VALID,97.095,VALID,0.019,VALID,19.953,VALID,140.0,VALID,0.223,
2017-06-12, 02:34:07,VALID,917.768,VALID,0.0,VALID,97.097,VALID,0.004,VALID,19.977,VALID,131.0,VALID,0.389,
2017-06-12, 02:35:07,VALID,917.777,VALID,0.0,VALID,97.081,VALID,0.011,VALID,20.005,VALID,127.0,VALID,0.168,
2017-06-12, 02:36:07,VALID,917.781,VALID,0.0,VALID,97.03,VALID,0.008,VALID,20.027,VALID,127.0,VALID,0.05,
2017-06-12, 02:37:07,VALID,917.783,VALID,0.0,VALID,96.968,VALID,0.023,VALID,20.037,VALID,127.0,VALID,0.0,
2017-06-12, 02:38:07,VALID,917.794,VALID,0.0,VALID,96.928,VALID,0.012,VALID,20.05,VALID,127.0,VALID,0.0,
2017-06-12, 02:39:07,VALID,917.797,VALID,0.0,VALID,96.608,VALID,-0.003,VALID,20.007,VALID,127.0,VALID,0.0,
2017-06-12, 02:40:07,VALID,917.797,VALID,0.0,VALID,96.425,VALID,0.006,VALID,19.965,VALID,127.0,VALID,0.021,
2017-06-12, 02:41:07,VALID,917.804,VALID,0.0,VALID,96.473,VALID,-0.002,VALID,19.934,VALID,124.0,VALID,0.241,
2017-06-12, 02:42:07,VALID,917.801,VALID,0.0,VALID,96.54,VALID,0.01,VALID,19.916,VALID,102.0,VALID,0.366,
2017-06-12, 02:43:07,VALID,917.804,VALID,0.0,VALID,96.597,VALID,-0.0,VALID,19.903,VALID,102.0,VALID,0.467,
2017-06-12, 02:44:07,VALID,917.796,VALID,0.0,VALID,96.682,VALID,0.005,VALID,19.897,VALID,102.0,VALID,0.586,
2017-06-12, 02:45:07,VALID,917.791,VALID,0.0,VALID,96.778,VALID,-0.003,VALID,19.902,VALID,115.0,VALID,0.611,
2017-06-12, 02:46:07,VALID,917.788,VALID,0.0,VALID,96.789,VALID,0.001,VALID,19.915,VALID,123.0,VALID,0.722,
2017-06-12, 02:47:07,VALID,917.796,VALID,0.0,VALID,96.689,VALID,0.005,VALID,19.903,VALID,123.0,VALID,0.698,
2017-06-12, 02:48:07,VALID,917.804,VALID,0.0,VALID,96.584,VALID,-0.003,VALID,19.886,VALID,127.0,VALID,0.559,
2017-06-12, 02:49:07,VALID,917.811,VALID,0.0,VALID,96.581,VALID,-0.002,VALID,19.866,VALID,135.0,VALID,0.338,
2017-06-12, 02:50:07,VALID,917.807,VALID,0.0,VALID,96.605,VALID,0.007,VALID,19.853,VALID,135.0,VALID,0.162,
2017-06-12, 02:51:07,VALID,917.808,VALID,0.0,VALID,96.725,VALID,-0.002,VALID,19.86,VALID,135.0,VALID,0.309,
2017-06-12, 02:52:07,VALID,917.803,VALID,0.0,VALID,96.883,VALID,0.002,VALID,19.888,VALID,135.0,VALID,0.327,
2017-06-12, 02:53:07,VALID,917.791,VALID,0.0,VALID,96.905,VALID,0.002,VALID,19.913,VALID,135.0,VALID,0.307,
2017-06-12, 02:54:07,VALID,917.785,VALID,0.0,VALID,96.876,VALID,0.021,VALID,19.917,VALID,135.0,VALID,0.258,
2017-06-12, 02:55:07,VALID,917.782,VALID,0.0,VALID,96.885,VALID,0.011,VALID,19.925,VALID,134.0,VALID,0.353,
2017-06-12, 02:56:07,VALID,917.789,VALID,0.0,VALID,96.861,VALID,0.007,VALID,19.924,VALID,134.0,VALID,0.385,
2017-06-12, 02:57:07,VALID,917.79,VALID,0.0,VALID,96.804,VALID,0.007,VALID,19.914,VALID,128.0,VALID,0.572,
2017-06-12, 02:58:07,VALID,917.799,VALID,0.0,VALID,96.858,VALID,0.027,VALID,19.912,VALID,120.0,VALID,0.606,
2017-06-12, 02:59:07,VALID,917.802,VALID,0.0,VALID,96.835,VALID,0.003,VALID,19.891,VALID,123.0,VALID,0.693,
2017-06-12, 03:00:07,VALID,917.81,VALID,0.0,VALID,96.769,VALID,0.018,VALID,19.859,VALID,126.0,VALID,0.75,
2017-06-12, 03:01:07,VALID,917.821,VALID,0.0,VALID,96.775,VALID,0.012,VALID,19.83,VALID,126.0,VALID,0.911,
2017-06-12, 03:02:07,VALID,917.829,VALID,0.0,VALID,96.883,VALID,-0.009,VALID,19.822,VALID,123.0,VALID,1.036,
2017-06-12, 03:03:07,VALID,917.833,VALID,0.0,VALID,97.078,VALID,0.004,VALID,19.849,VALID,127.0,VALID,0.98,
2017-06-12, 03:04:07,VALID,917.827,VALID,0.0,VALID,97.163,VALID,0.02,VALID,19.856,VALID,129.0,VALID,0.85,
2017-06-12, 03:05:07,VALID,917.814,VALID,0.0,VALID,97.183,VALID,0.012,VALID,19.857,VALID,128.0,VALID,0.916,
2017-06-12, 03:06:07,VALID,917.809,VALID,0.0,VALID,97.264,VALID,0.007,VALID,19.849,VALID,127.0,VALID,0.908,
2017-06-12, 03:07:07,VALID,917.795,VALID,0.0,VALID,97.327,VALID,0.003,VALID,19.855,VALID,134.0,VALID,0.886,
2017-06-12, 03:08:07,VALID,917.794,VALID,0.0,VALID,97.407,VALID,0.006,VALID,19.866,VALID,136.0,VALID,0.895,
2017-06-12, 03:09:07,VALID,917.782,VALID,0.0,VALID,97.45,VALID,-0.007,VALID,19.851,VALID,137.0,VALID,0.905,
2017-06-12, 03:10:06,VALID,917.779,VALID,0.0,VALID,97.52,VALID,0.003,VALID,19.842,VALID,133.0,VALID,1.033,
2017-06-12, 03:11:06,VALID,917.762,VALID,0.0,VALID,97.551,VALID,0.019,VALID,19.828,VALID,134.0,VALID,1.007,
2017-06-12, 03:12:06,VALID,917.77,VALID,0.0,VALID,97.598,VALID,0.007,VALID,19.812,VALID,129.0,VALID,1.027,
2017-06-12, 03:13:06,VALID,917.746,VALID,0.0,VALID,97.664,VALID,0.005,VALID,19.805,VALID,126.0,VALID,1.161,
2017-06-12, 03:14:06,VALID,917.737,VALID,0.0,VALID,97.739,VALID,-0.005,VALID,19.807,VALID,124.0,VALID,1.112,
2017-06-12, 03:15:06,VALID,917.716,VALID,0.0,VALID,97.804,VALID,0.0,VALID,19.789,VALID,122.0,VALID,0.941,
2017-06-12, 03:16:06,VALID,917.688,VALID,0.0,VALID,97.763,VALID,0.02,VALID,19.758,VALID,120.0,VALID,0.781,
2017-06-12, 03:17:06,VALID,917.675,VALID,0.0,VALID,97.763,VALID,-0.0,VALID,19.737,VALID,122.0,VALID,0.597,
2017-06-12, 03:18:06,VALID,917.657,VALID,0.0,VALID,97.76,VALID,0.007,VALID,19.722,VALID,130.0,VALID,0.59,
2017-06-12, 03:19:06,VALID,917.645,VALID,0.0,VALID,97.742,VALID,0.014,VALID,19.704,VALID,131.0,VALID,0.841,
2017-06-12, 03:20:06,VALID,917.646,VALID,0.0,VALID,97.715,VALID,0.018,VALID,19.699,VALID,134.0,VALID,0.723,
2017-06-12, 03:21:06,VALID,917.645,VALID,0.0,VALID,97.634,VALID,-0.001,VALID,19.694,VALID,131.0,VALID,0.892,
2017-06-12, 03:22:06,VALID,917.636,VALID,0.0,VALID,97.566,VALID,-0.002,VALID,19.694,VALID,130.0,VALID,0.706,
2017-06-12, 03:23:06,VALID,917.654,VALID,0.0,VALID,97.48,VALID,0.008,VALID,19.69,VALID,129.0,VALID,0.59,
2017-06-12, 03:24:06,VALID,917.652,VALID,0.0,VALID,97.346,VALID,0.018,VALID,19.673,VALID,121.0,VALID,0.615,
2017-06-12, 03:25:06,VALID,917.66,VALID,0.0,VALID,97.315,VALID,0.014,VALID,19.671,VALID,121.0,VALID,0.664,
2017-06-12, 03:26:06,VALID,917.645,VALID,0.0,VALID,97.295,VALID,0.01,VALID,19.687,VALID,125.0,VALID,0.689,
2017-06-12, 03:27:06,VALID,917.634,VALID,0.0,VALID,97.191,VALID,0.037,VALID,19.688,VALID,136.0,VALID,0.699,
2017-06-12, 03:28:06,VALID,917.623,VALID,0.0,VALID,97.017,VALID,0.011,VALID,19.686,VALID,134.0,VALID,0.693,
2017-06-12, 03:29:06,VALID,917.608,VALID,0.0,VALID,96.849,VALID,-0.001,VALID,19.683,VALID,130.0,VALID,0.75,
2017-06-12, 03:30:06,VALID,917.599,VALID,0.0,VALID,96.78,VALID,0.02,VALID,19.69,VALID,131.0,VALID,0.921,
2017-06-12, 03:31:06,VALID,917.589,VALID,0.0,VALID,96.74,VALID,0.007,VALID,19.698,VALID,135.0,VALID,0.767,
2017-06-12, 03:32:06,VALID,917.582,VALID,0.0,VALID,96.647,VALID,0.016,VALID,19.707,VALID,136.0,VALID,0.943,
2017-06-12, 03:33:06,VALID,917.58,VALID,0.0,VALID,96.544,VALID,0.013,VALID,19.713,VALID,138.0,VALID,0.841,
2017-06-12, 03:34:06,VALID,917.592,VALID,0.0,VALID,96.493,VALID,0.016,VALID,19.733,VALID,132.0,VALID,0.986,
2017-06-12, 03:35:06,VALID,917.597,VALID,0.0,VALID,96.391,VALID,0.02,VALID,19.751,VALID,131.0,VALID,0.91,
2017-06-12, 03:36:06,VALID,917.593,VALID,0.0,VALID,96.325,VALID,0.014,VALID,19.762,VALID,133.0,VALID,0.966,
2017-06-12, 03:37:06,VALID,917.606,VALID,0.0,VALID,96.237,VALID,0.007,VALID,19.768,VALID,137.0,VALID,0.86,
2017-06-12, 03:38:06,VALID,917.617,VALID,0.0,VALID,96.221,VALID,0.003,VALID,19.775,VALID,139.0,VALID,0.724,
2017-06-12, 03:39:06,VALID,917.615,VALID,0.0,VALID,96.304,VALID,0.019,VALID,19.79,VALID,145.0,VALID,0.986,